Location: C.E.K. Mees Observatory
(42.7003°N, 77.4088°W)
Time: 08:56:17
(UTC-05:00)

Vanguard 1 Rocket - All Passes

Search period start: 20 February 2018 00:00
Search period end: 02 March 2018 00:00
Orbit: 655 x 4222 km, 34.3° (Epoch: 19 February)

Date Brightness Start Highest point End Pass type
(mag) Time Alt. Az. Time Alt. Az. Time Alt. Az.
20 Feb - 00:35:37 10° WSW 00:59:22 68° S 01:23:02 10° E visible
20 Feb - 03:06:07 10° W 03:31:41 62° SSW 03:50:32 10° SE visible
20 Feb - 05:40:08 10° W 06:00:10 34° SW 06:13:35 10° SSE visible
20 Feb - 20:59:14 10° SSW 21:14:52 37° SE 21:36:33 10° E visible
20 Feb - 23:23:08 10° WSW 23:44:24 63° SSE 00:09:24 10° E visible
21 Feb - 01:51:48 10° W 02:17:00 68° S 02:38:39 10° ESE visible
21 Feb - 04:23:59 10° W 04:47:37 47° SW 05:03:57 10° SSE visible
21 Feb - 07:02:13 10° W 07:13:24 17° WSW 07:22:10 10° SSW daylight
21 Feb - 19:50:40 10° S 20:02:49 25° SE 20:19:28 10° E visible
21 Feb - 22:11:40 10° SW 22:30:06 55° SSE 22:54:55 10° E visible
22 Feb - 00:38:22 10° WSW 01:01:51 69° S 01:25:52 10° ESE visible
22 Feb - 03:08:51 10° W 03:33:59 58° SSW 03:53:10 10° SE visible
22 Feb - 05:43:19 10° W 06:02:00 29° SW 06:15:18 10° S visible
22 Feb - 18:45:47 10° SE 18:51:39 13° ESE 18:58:31 10° E visible
22 Feb - 21:01:15 10° SSW 21:16:48 43° SE 21:39:29 10° E visible
22 Feb - 23:25:50 10° WSW 23:46:47 66° SSE 00:12:11 10° E visible
23 Feb - 01:54:36 10° W 02:19:25 66° SSW 02:41:24 10° ESE visible
23 Feb - 04:26:50 10° W 04:49:37 42° SW 05:06:08 10° SSE visible
23 Feb - 07:08:29 10° W 07:15:04 12° WSW 07:20:50 10° SW daylight
23 Feb - 19:52:04 10° S 20:04:36 30° SE 20:22:56 10° E visible
23 Feb - 22:14:14 10° SW 22:32:20 59° SSE 22:57:38 10° E visible
24 Feb - 00:41:11 10° W 01:04:19 69° S 01:28:38 10° ESE visible
24 Feb - 03:11:38 10° W 03:36:10 54° SSW 03:55:37 10° SE visible
24 Feb - 05:46:56 10° W 06:03:44 24° SW 06:16:30 10° S visible
24 Feb - 18:45:02 10° SSE 18:53:21 17° ESE 19:04:17 10° E visible
24 Feb - 21:03:34 10° SW 21:18:52 48° SSE 21:42:16 10° E visible
24 Feb - 23:28:39 10° WSW 23:49:14 68° S 00:14:55 10° E visible
25 Feb - 01:57:25 10° W 02:21:46 63° SSW 02:44:00 10° SE visible
25 Feb - 04:29:51 10° W 04:51:29 36° SW 05:08:00 10° SSE visible
25 Feb - 19:53:57 10° SSW 20:06:30 35° SE 20:26:02 10° E visible
25 Feb - 22:16:57 10° WSW 22:34:42 63° SSE 23:00:19 10° E visible
26 Feb - 00:44:05 10° W 01:06:47 68° S 01:31:18 10° ESE visible
26 Feb - 03:14:30 10° W 03:38:13 48° SSW 03:57:50 10° SSE visible
26 Feb - 05:51:15 10° W 06:05:22 19° SW 06:16:54 10° SSW visible
26 Feb - 18:45:50 10° S 18:55:10 22° SE 19:08:31 10° E visible
26 Feb - 21:06:06 10° SW 21:21:05 53° SSE 21:44:57 10° E visible
26 Feb - 23:31:33 10° WSW 23:51:45 69° S 00:17:35 10° ESE visible
27 Feb - 02:00:18 10° W 02:24:02 58° SSW 02:46:25 10° SE visible
27 Feb - 04:33:08 10° W 04:53:15 31° SW 05:09:27 10° S visible
27 Feb - 19:56:10 10° SSW 20:08:33 40° SE 20:28:53 10° E visible
27 Feb - 22:19:48 10° WSW 22:37:10 66° SSE 23:02:57 10° E visible
28 Feb - 00:47:00 10° W 01:09:13 65° SSW 01:33:51 10° ESE visible
28 Feb - 03:17:29 10° W 03:40:11 43° SW 03:59:46 10° SSE visible
28 Feb - 05:57:03 10° W 06:06:59 14° WSW 06:15:45 10° SSW visible
28 Feb - 18:47:24 10° S 18:57:05 27° SE 19:12:02 10° E visible
28 Feb - 21:08:50 10° SW 21:23:27 58° SSE 21:47:34 10° E visible
28 Feb - 23:34:31 10° W 23:54:16 68° S 00:20:11 10° ESE visible
01 Mar - 02:03:14 10° W 02:26:13 53° SSW 02:48:38 10° SE visible
01 Mar - 04:36:51 10° W 04:54:58 25° SW 05:10:21 10° S visible
01 Mar - 17:41:12 10° SSE 17:46:28 14° ESE 17:53:03 10° E daylight
01 Mar - 19:58:39 10° SW 20:10:47 46° SE 20:31:36 10° E visible
01 Mar - 22:22:46 10° WSW 22:39:43 67° S 23:05:33 10° E visible
